SCP
0 0 0 0 0 0 0 0 0 0 0 0 0 0 0 0 0 0 0 0 0 0 0 0 0 0 0 0 0 0 0 0 0 0 0 0 0 0 0 0 0 0 0 0 0
0 0 0 0 0 0 0 0 0 0 0 0 0 0 0 0 0 0 0 0 0 0 0 0 0 0 0 0 0 0 0 0 0 0 0 0 0 0 0 0 0 0 0 0 0
0 0 0 0 0 0 0 0 0 0 0 0 0 0 0 0 0 0 0 0 0 0 0 0 0 0 0 0 0 0 0 0 0 0 0 0 0 0 0 0 0 0 0 0 0
0 0 0 0 0 0 0 0 0 0 0 0 0 0 0 0 0 0 0 0 0 0 0 0 0 0 0 0 0 0 0 0 0 0 0 0 0 0 0 0 0 0 0 0 0
0 0 0 0 0 0 0 0 0 0 0 0 0 0 0 0 0 0 0 0 0 0 0 0 0 0 0 0 0 0 0 0 0 0 0 0 0 0 0 0 0 0 0 0 0
0 0 0 0 0 0 0 0 0 0 0 0 0 0 0 0 0 0 0 0 0 0 0 0 0 0 0 0 0 0 0 0 0 0 0 0 0 0 0 0 0 0 0 0 0
0 0 0 0 0 0 0 0 0 0 0 0 0 0 0 0 0 0 0 0 0 0 0 0 0 0 0 0 0 0 0 0 0 0 0 0 0 0 0 0 0 0 0 0 0
0 0 0 0 0 0 0 0 0 0 0 0 0 0 0 0 0 0 0 0 0 0 0 0 0 0 0 0 0 0 0 0 0 0 0 0 0 0 0 0 0 0 0 0 0
0 0 0 0 0 0 0 0 0 0 0 0 0 0 0 0 0 0 0 0 0 0 0 0 0 0 0 0 0 0 0 0 0 0 0 0 0 0 0 0 0 0 0 0 0
0 0 0 0 0 0 0 0 -0 -0 0 0 0 0 0 0 0 0 0 0 0 0 0 0 0 0 0 0 0 0 0 0 0 0 0 0 0 0 0 0 0 0 0 0 0
0 0 0 0 0 0 0 0 0 0 0 0 0 0 0 0 0 0 0 0 0 0 0 0 0 0 0 0 0 0 0 0 0 0 0 0 0 0 0 0 0 0 0 0 0
0 0 0 0 0 0 0 0 0 0 0 0 0 0 0 0 0 0 0 0 0 0 0 0 0 0 0 0 0 0 0 0 0 0 0 0 0 0 0 0 0 0 0 0 0
0 0 0 0 0 0 0 0 0 0 0 0 0 0 0 0 0 0 0 0 0 0 0 0 0 0 0 0 0 0 0 0 0 0 0 0 0 0 0 0 0 0 0 0 0
0 0 0 0 0 0 0 0 0 0 0 0 -0 0 0 0 0 0 0 0 0 0 0 0 0 0 0 0 0 0 0 0 0 0 0 0 -0 0 0 0 0 0 0 0 0
0 0 0 0 0 0 0 0 0 0 0 0 -0 0 0 0 0 0 0 0 0 0 0 0 0 0 0 0 0 0 0 0 0 0 0 0 0 -0 0 0 0 0 0 0 0
0 0 0 0 0 0 0 0 0 0 0 0 0 0 0 0 0 0 0 0 0 0 0 0 0 0 0 0 0 0 0 0 0 0 0 0 0 0 0 0 0 0 0 0 0
0 0 0 0 0 0 0 0 0 0 0 0 0 0 0 0 0 0 0 0 0 0 0 0 0 0 0 0 0 0 0 0 0 0 0 0 0 0 0 0 0 0 0 0 0
0 0 0 0 0 0 0 0 0 0 0 0 0 0 0 0 0 0 0 0 0 0 0 0 0 0 0 0 0 0 0 0 0 0 0 0 0 0 0 0 0 0 0 0 0
0 0 0 0 0 0 0 0 0 0 0 0 0 0 0 0 -0 0 -0 0 0 0 0 0 0 0 0 0 0 0 0 0 0 0 0 0 0 0 0 0 0 0 0 0 0
0 0 0 0 0 0 0 0 0 0 0 0 0 0 0 0 0 0 0 -0 0 0 0 0 0 0 0 0 0 0 0 0 0 0 0 0 0 0 0 0 0 0 0 0 0
0 0 0 0 0 0 0 0 0 0 0 0 0 0 0 0 0 -0 0 0 0 0 0 0 0 0 0 0 0 0 0 0 0 0 0 0 0 0 0 0 0 0 0 0 0
0 0 0 0 0 0 0 0 0 0 -0 0 0 0 0 0 0 0 -0 -0 -0 -0 -0 0 0 0 0 0 0 0 0 0 0 0 0 0 0 0 0 0 0 0 0 0 0
0 0 0 -0 0 0 -0 0 0 0 0 0 0 0 0 0 0 0 0 0 0 -0 0 -0 0 0 0 0 0 0 0 0 0 0 0 0 0 0 0 0 0 0 0 0 0
0 0 -0 0 0 -0 -0 -0 -0 -0 -0 0 0 0 0 0 0 -0 -0 0 0 0 0 -0 0 0 0 0 0 0 0 0 0 0 0 0 0 0 0 0 0 0 0 0 0
0 0 0 0 0 0 -0 -0 -0 0 -0 0 0 0 0 0 -0 -0 -0 0 0 0 0 0 0 0 0 0 0 0 0 0 0 0 0 0 0 0 0 0 0 0 0 0 0
0 0 -0 0 0 -0 0 -0 0 -0 0 0 0 0 0 0 0 0 0 0 0 0 0 0 0 0 0 0 0 0 0 0 0 0 0 0 0 0 0 0 0 0 0 0 0
0 0 0 -0 -0 -0 -0 0 0 0 -0 -0 0 0 0 0 0 0 0 0 0 0 0 0 0 0 0 0 0 0 0 0 0 0 0 0 0 0 0 0 0 0 0 0 0
Wind_Speed_500mb
39 40 43 44 44 43 42 41 43 46 42 44 43 42 37 38 41 43 52 45 38 28 32 24 26 21 24 26 21 13 15 24 37 29 20 12 16 15 6 15 12 16 8 8 23
41 41 42 43 44 45 45 48 48 47 45 46 46 44 42 38 43 56 59 47 48 37 39 38 31 29 24 26 19 24 21 35 34 24 15 15 22 18 16 24 25 25 19 21 23
44 41 43 47 46 44 49 49 48 47 48 45 46 45 38 32 37 32 33 38 52 46 34 33 24 32 38 29 29 20 34 33 26 27 26 25 22 20 21 25 31 36 32 32 31
48 48 49 44 44 47 48 49 51 45 42 46 42 38 36 26 15 10 9 14 21 42 42 30 32 36 24 34 44 27 42 43 27 30 20 28 24 22 39 40 11 25 19 36 36
45 45 43 53 52 51 52 57 54 47 39 39 39 41 39 28 50 45 35 37 24 23 42 38 39 45 37 26 42 39 38 28 44 25 36 27 35 36 40 41 27 21 27 34 34
42 43 43 46 53 55 62 59 57 53 43 38 37 42 51 37 38 45 44 35 36 36 40 43 32 48 32 42 36 18 46 38 31 43 29 32 41 33 42 45 48 37 39 36 35
50 45 46 49 52 57 60 64 67 56 48 44 42 45 66 75 36 39 29 32 37 38 39 44 48 24 18 33 44 32 28 24 33 38 32 31 41 51 64 30 37 52 46 41 39
54 55 55 54 57 60 62 66 68 64 57 46 45 48 68 54 54 57 46 50 39 39 36 27 35 39 40 13 5 22 31 38 33 42 20 28 45 41 66 53 50 45 46 41 39
58 61 62 61 60 64 68 73 70 68 61 47 48 49 37 28 58 71 71 59 45 38 37 23 26 34 26 26 24 29 27 39 40 23 27 36 35 35 22 40 46 49 47 43 38
61 62 64 67 67 66 72 74 74 46 40 36 41 27 37 25 37 41 50 52 32 27 18 24 23 21 31 30 34 29 34 39 34 23 34 33 46 19 18 30 42 45 50 50 47
62 62 63 65 69 70 68 69 40 30 18 28 30 34 39 19 33 30 31 43 39 34 29 35 18 39 57 49 41 42 40 42 38 31 28 39 44 43 37 31 37 44 49 49 48
63 63 63 63 64 67 54 31 41 38 29 56 63 76 70 53 13 33 34 40 38 38 42 14 43 61 41 39 45 45 44 53 37 8 14 29 45 41 41 41 53 52 52 54 47
63 62 63 61 63 47 27 43 47 45 16 52 70 70 92 53 40 30 49 52 38 46 42 47 52 42 44 39 44 47 49 44 41 12 22 25 46 44 47 55 59 65 63 57 58
64 62 66 63 45 32 52 32 36 43 13 34 28 31 65 73 42 65 63 34 14 28 52 35 60 43 47 53 50 46 48 43 34 20 25 16 26 36 38 52 49 57 60 62 59
68 64 63 51 59 49 44 44 41 33 17 16 30 10 7 64 42 43 68 64 22 23 13 29 38 45 37 59 51 39 27 26 35 31 23 33 12 39 32 44 41 38 58 54 52
70 67 65 59 52 53 45 35 31 13 22 10 6 1 11 33 30 17 46 50 21 24 16 31 15 33 42 38 38 3 5 5 2 9 18 39 25 54 38 25 34 35 49 53 53
72 70 68 60 59 48 39 23 15 16 20 15 35 29 11 12 14 19 18 23 23 16 26 18 12 5 10 20 9 23 19 9 11 11 15 21 26 45 16 12 17 25 45 52 53
79 79 78 59 50 37 31 11 36 22 24 33 43 35 25 10 14 7 15 35 41 40 26 31 20 25 22 22 21 50 39 15 18 14 15 10 23 21 1 5 4 8 47 53 53
83 90 66 55 41 29 23 23 23 27 33 30 33 38 35 33 14 11 13 10 16 43 29 19 25 22 40 24 35 15 26 13 6 2 2 12 13 31 18 12 12 11 44 49 51
93 65 57 25 17 31 13 45 25 32 38 30 33 13 14 13 12 13 11 10 9 21 45 17 29 29 17 10 4 13 25 9 9 11 12 16 13 23 15 20 20 24 37 48 47
65 21 25 25 17 17 16 25 22 37 36 12 27 39 39 39 19 13 11 14 15 9 21 6 9 9 18 19 35 13 12 11 4 8 9 5 9 2 2 17 27 26 43 50 47
27 12 25 28 11 12 15 7 7 14 24 23 26 33 31 23 29 24 31 33 14 8 8 13 5 7 16 9 8 29 14 28 14 14 9 6 14 2 3 6 20 29 45 42 41
19 34 23 18 11 16 23 13 13 14 21 9 10 11 8 18 10 15 23 12 25 12 9 8 8 9 1 2 1 12 14 23 5 5 22 16 11 1 2 4 8 32 39 42 47
12 9 16 20 26 26 30 25 16 20 24 19 21 24 20 17 20 19 27 16 8 18 25 9 8 11 12 2 6 17 29 26 21 13 16 20 6 5 6 12 14 28 39 47 48
6 9 14 12 18 28 33 24 33 13 13 8 7 17 22 10 8 17 26 22 8 13 11 8 9 9 3 1 7 4 23 32 31 37 20 23 27 3 7 10 17 24 34 42 41
11 14 16 35 36 27 29 10 25 25 7 12 20 22 16 16 20 31 34 23 19 11 8 7 4 7 6 4 7 9 18 31 39 37 35 4 8 4 7 13 22 30 33 36 41
25 34 21 23 24 17 16 11 14 11 16 25 18 18 17 21 17 33 35 25 16 10 12 6 7 8 4 1 4 13 22 26 25 26 32 31 14 7 10 9 14 26 37 35 38
Wind_Direction_500mb
340 336 333 323 313 304 298 298 302 304 301 304 302 295 291 291 285 278 268 265 268 257 240 223 216 209 205 217 217 212 238 237 243 249 248 159 214 201 207 232 214 205 254 145 184
341 335 332 331 325 320 310 300 295 294 296 293 298 297 291 292 291 276 269 270 260 248 227 222 202 199 207 224 213 211 233 237 250 261 244 220 229 212 214 206 219 208 209 195 189
348 341 335 330 327 322 322 317 305 294 290 288 291 296 294 302 302 276 275 250 243 233 223 216 213 204 228 224 219 217 239 241 246 248 249 238 224 209 222 234 224 218 205 205 204
352 352 346 336 328 327 318 313 313 303 292 286 283 291 289 301 264 287 276 262 238 213 210 202 210 201 228 222 229 253 243 255 257 228 226 223 232 222 230 232 243 228 217 197 204
348 351 348 339 341 335 330 323 313 308 293 289 273 271 273 252 251 277 269 281 278 223 214 207 210 213 228 235 248 234 254 246 237 229 228 242 237 236 244 241 231 212 205 199 209
348 341 340 336 332 330 328 324 322 313 294 282 262 263 249 249 257 256 272 265 255 226 214 211 217 223 254 249 236 220 248 244 241 233 232 229 242 239 247 242 233 223 221 216 216
349 343 332 325 325 324 323 319 316 308 297 279 260 254 242 245 259 266 268 263 245 232 225 221 219 216 225 255 241 244 254 240 238 234 233 237 254 233 241 228 230 229 227 223 224
347 346 339 334 326 320 314 314 311 309 294 280 265 252 249 259 262 248 260 250 246 236 228 236 221 230 240 260 216 233 237 250 234 216 217 192 254 226 236 229 228 230 225 219 217
342 340 337 335 328 323 319 312 310 306 295 278 269 244 254 250 238 254 254 239 240 230 223 227 206 221 198 222 233 220 242 229 241 213 190 208 261 251 202 206 218 221 219 216 214
335 334 332 331 328 326 320 320 316 310 287 273 251 260 235 223 238 236 233 219 207 191 197 200 203 216 218 208 220 219 221 242 238 181 209 216 244 235 206 221 224 221 222 221 219
334 334 330 325 325 323 321 325 334 312 294 256 278 246 276 224 235 234 205 195 203 198 198 194 208 217 221 218 230 241 243 239 245 244 211 234 244 244 231 219 227 219 216 216 217
333 335 331 324 321 319 319 311 310 302 282 273 268 271 262 262 271 227 192 185 194 209 209 169 221 228 234 238 232 240 248 253 259 196 223 259 255 250 248 231 224 224 219 218 213
330 332 330 323 315 322 314 313 314 310 268 278 259 254 253 246 231 223 194 204 205 220 207 205 224 220 234 231 237 230 232 239 248 189 242 278 274 253 245 242 237 227 226 221 216
329 331 330 329 321 309 310 308 313 322 273 270 240 252 232 226 244 219 211 213 226 225 221 226 245 237 220 224 219 232 227 237 237 244 245 182 276 258 246 229 227 228 221 224 216
326 325 324 323 305 300 301 300 310 313 266 269 223 240 242 208 211 212 209 209 200 197 161 209 234 221 217 223 210 235 233 238 234 234 246 239 257 260 238 242 221 223 221 218 206
321 319 318 314 302 295 289 290 305 234 249 275 289 246 269 207 235 247 183 200 221 224 204 246 273 219 208 223 220 139 93 79 159 206 229 223 208 268 243 236 228 214 210 202 197
319 316 308 306 290 295 285 295 253 234 329 260 264 260 257 274 243 200 183 178 184 192 206 195 208 204 216 194 135 160 155 202 204 205 230 195 205 237 261 240 259 217 185 186 181
317 312 303 297 296 284 266 233 256 258 255 279 299 293 274 295 255 221 212 204 216 225 240 218 211 167 187 193 180 191 194 208 217 203 218 175 207 240 4 133 113 185 176 172 177
320 313 296 296 287 271 223 245 245 254 256 278 297 283 278 261 211 272 226 261 227 214 223 228 235 182 177 187 169 163 211 222 133 210 191 191 260 284 189 187 186 171 170 177 176
323 310 297 299 285 239 246 231 244 256 278 292 277 269 277 322 287 220 207 179 232 222 231 245 254 197 166 141 295 201 161 173 213 185 224 210 243 238 185 204 187 182 182 177 171
338 318 299 294 276 227 246 264 258 265 268 273 263 264 268 283 293 340 306 298 223 202 223 276 253 121 143 204 177 172 169 203 209 223 216 239 233 342 295 200 185 181 176 172 167
334 302 297 299 286 242 255 213 194 253 262 246 256 261 271 284 293 289 256 238 187 187 211 202 329 174 229 357 326 234 200 192 205 196 244 340 255 37 11 358 164 167 165 162 163
298 297 281 277 281 287 292 246 237 237 244 252 277 271 235 270 278 303 297 309 279 224 239 157 204 166 57 295 296 217 199 215 196 80 202 201 250 99 177 154 149 157 153 153 164
304 299 270 219 259 269 284 288 264 232 260 250 262 282 285 258 249 262 276 302 305 247 254 172 229 253 232 320 142 205 203 205 205 205 193 217 215 160 190 165 161 152 154 162 174
265 269 288 288 292 303 297 282 281 280 219 235 251 248 270 275 276 254 270 297 228 246 225 229 248 210 106 25 309 289 210 198 212 220 209 242 229 117 128 182 172 158 155 163 174
262 292 285 286 286 286 291 284 296 298 224 264 235 274 255 267 274 295 292 292 280 191 221 200 219 156 215 177 235 241 231 206 212 228 238 98 282 70 87 113 154 177 175 179 185
281 293 274 287 294 289 294 298 300 326 277 256 293 300 282 274 283 290 271 276 266 295 212 216 186 170 169 168 203 259 235 201 219 231 231 230 224 158 177 146 186 191 187 191 189
Wind_Speed_850mb
39 40 43 44 44 43 42 41 43 46 42 44 43 42 37 38 41 43 52 45 38 28 32 24 26 21 24 26 21 13 15 24 37 29 20 12 16 15 6 15 12 16 8 8 23
41 41 42 43 44 45 45 48 48 47 45 46 46 44 42 38 43 56 59 47 48 37 39 38 31 29 24 26 19 24 21 35 34 24 15 15 22 18 16 24 25 25 19 21 23
44 41 43 47 46 44 49 49 48 47 48 45 46 45 38 32 37 32 33 38 52 46 34 33 24 32 38 29 29 20 34 33 26 27 26 25 22 20 21 25 31 36 32 32 31
48 48 49 44 44 47 48 49 51 45 42 46 42 38 36 26 15 10 9 14 21 42 42 30 32 36 24 34 44 27 42 43 27 30 20 28 24 22 39 40 11 25 19 36 36
45 45 43 53 52 51 52 57 54 47 39 39 39 41 39 28 50 45 35 37 24 23 42 38 39 45 37 26 42 39 38 28 44 25 36 27 35 36 40 41 27 21 27 34 34
42 43 43 46 53 55 62 59 57 53 43 38 37 42 51 37 38 45 44 35 36 36 40 43 32 48 32 42 36 18 46 38 31 43 29 32 41 33 42 45 48 37 39 36 35
50 45 46 49 52 57 60 64 67 56 48 44 42 45 66 75 36 39 29 32 37 38 39 44 48 24 18 33 44 32 28 24 33 38 32 31 41 51 64 30 37 52 46 41 39
54 55 55 54 57 60 62 66 68 64 57 46 45 48 68 54 54 57 46 50 39 39 36 27 35 39 40 13 5 22 31 38 33 42 20 28 45 41 66 53 50 45 46 41 39
58 61 62 61 60 64 68 73 70 68 61 47 48 49 37 28 58 71 71 59 45 38 37 23 26 34 26 26 24 29 27 39 40 23 27 36 35 35 22 40 46 49 47 43 38
61 62 64 67 67 66 72 74 74 46 40 36 41 27 37 25 37 41 50 52 32 27 18 24 23 21 31 30 34 29 34 39 34 23 34 33 46 19 18 30 42 45 50 50 47
62 62 63 65 69 70 68 69 40 30 18 28 30 34 39 19 33 30 31 43 39 34 29 35 18 39 57 49 41 42 40 42 38 31 28 39 44 43 37 31 37 44 49 49 48
63 63 63 63 64 67 54 31 41 38 29 56 63 76 70 53 13 33 34 40 38 38 42 14 43 61 41 39 45 45 44 53 37 8 14 29 45 41 41 41 53 52 52 54 47
63 62 63 61 63 47 27 43 47 45 16 52 70 70 92 53 40 30 49 52 38 46 42 47 52 42 44 39 44 47 49 44 41 12 22 25 46 44 47 55 59 65 63 57 58
64 62 66 63 45 32 52 32 36 43 13 34 28 31 65 73 42 65 63 34 14 28 52 35 60 43 47 53 50 46 48 43 34 20 25 16 26 36 38 52 49 57 60 62 59
68 64 63 51 59 49 44 44 41 33 17 16 30 10 7 64 42 43 68 64 22 23 13 29 38 45 37 59 51 39 27 26 35 31 23 33 12 39 32 44 41 38 58 54 52
70 67 65 59 52 53 45 35 31 13 22 10 6 1 11 33 30 17 46 50 21 24 16 31 15 33 42 38 38 3 5 5 2 9 18 39 25 54 38 25 34 35 49 53 53
72 70 68 60 59 48 39 23 15 16 20 15 35 29 11 12 14 19 18 23 23 16 26 18 12 5 10 20 9 23 19 9 11 11 15 21 26 45 16 12 17 25 45 52 53
79 79 78 59 50 37 31 11 36 22 24 33 43 35 25 10 14 7 15 35 41 40 26 31 20 25 22 22 21 50 39 15 18 14 15 10 23 21 1 5 4 8 47 53 53
83 90 66 55 41 29 23 23 23 27 33 30 33 38 35 33 14 11 13 10 16 43 29 19 25 22 40 24 35 15 26 13 6 2 2 12 13 31 18 12 12 11 44 49 51
93 65 57 25 17 31 13 45 25 32 38 30 33 13 14 13 12 13 11 10 9 21 45 17 29 29 17 10 4 13 25 9 9 11 12 16 13 23 15 20 20 24 37 48 47
65 21 25 25 17 17 16 25 22 37 36 12 27 39 39 39 19 13 11 14 15 9 21 6 9 9 18 19 35 13 12 11 4 8 9 5 9 2 2 17 27 26 43 50 47
27 12 25 28 11 12 15 7 7 14 24 23 26 33 31 23 29 24 31 33 14 8 8 13 5 7 16 9 8 29 14 28 14 14 9 6 14 2 3 6 20 29 45 42 41
19 34 23 18 11 16 23 13 13 14 21 9 10 11 8 18 10 15 23 12 25 12 9 8 8 9 1 2 1 12 14 23 5 5 22 16 11 1 2 4 8 32 39 42 47
12 9 16 20 26 26 30 25 16 20 24 19 21 24 20 17 20 19 27 16 8 18 25 9 8 11 12 2 6 17 29 26 21 13 16 20 6 5 6 12 14 28 39 47 48
6 9 14 12 18 28 33 24 33 13 13 8 7 17 22 10 8 17 26 22 8 13 11 8 9 9 3 1 7 4 23 32 31 37 20 23 27 3 7 10 17 24 34 42 41
11 14 16 35 36 27 29 10 25 25 7 12 20 22 16 16 20 31 34 23 19 11 8 7 4 7 6 4 7 9 18 31 39 37 35 4 8 4 7 13 22 30 33 36 41
25 34 21 23 24 17 16 11 14 11 16 25 18 18 17 21 17 33 35 25 16 10 12 6 7 8 4 1 4 13 22 26 25 26 32 31 14 7 10 9 14 26 37 35 38
Wind_Direction_850mb
340 336 333 323 313 304 298 298 302 304 301 304 302 295 291 291 285 278 268 265 268 257 240 223 216 209 205 217 217 212 238 237 243 249 248 159 214 201 207 232 214 205 254 145 184
341 335 332 331 325 320 310 300 295 294 296 293 298 297 291 292 291 276 269 270 260 248 227 222 202 199 207 224 213 211 233 237 250 261 244 220 229 212 214 206 219 208 209 195 189
348 341 335 330 327 322 322 317 305 294 290 288 291 296 294 302 302 276 275 250 243 233 223 216 213 204 228 224 219 217 239 241 246 248 249 238 224 209 222 234 224 218 205 205 204
352 352 346 336 328 327 318 313 313 303 292 286 283 291 289 301 264 287 276 262 238 213 210 202 210 201 228 222 229 253 243 255 257 228 226 223 232 222 230 232 243 228 217 197 204
348 351 348 339 341 335 330 323 313 308 293 289 273 271 273 252 251 277 269 281 278 223 214 207 210 213 228 235 248 234 254 246 237 229 228 242 237 236 244 241 231 212 205 199 209
348 341 340 336 332 330 328 324 322 313 294 282 262 263 249 249 257 256 272 265 255 226 214 211 217 223 254 249 236 220 248 244 241 233 232 229 242 239 247 242 233 223 221 216 216
349 343 332 325 325 324 323 319 316 308 297 279 260 254 242 245 259 266 268 263 245 232 225 221 219 216 225 255 241 244 254 240 238 234 233 237 254 233 241 228 230 229 227 223 224
347 346 339 334 326 320 314 314 311 309 294 280 265 252 249 259 262 248 260 250 246 236 228 236 221 230 240 260 216 233 237 250 234 216 217 192 254 226 236 229 228 230 225 219 217
342 340 337 335 328 323 319 312 310 306 295 278 269 244 254 250 238 254 254 239 240 230 223 227 206 221 198 222 233 220 242 229 241 213 190 208 261 251 202 206 218 221 219 216 214
335 334 332 331 328 326 320 320 316 310 287 273 251 260 235 223 238 236 233 219 207 191 197 200 203 216 218 208 220 219 221 242 238 181 209 216 244 235 206 221 224 221 222 221 219
334 334 330 325 325 323 321 325 334 312 294 256 278 246 276 224 235 234 205 195 203 198 198 194 208 217 221 218 230 241 243 239 245 244 211 234 244 244 231 219 227 219 216 216 217
333 335 331 324 321 319 319 311 310 302 282 273 268 271 262 262 271 227 192 185 194 209 209 169 221 228 234 238 232 240 248 253 259 196 223 259 255 250 248 231 224 224 219 218 213
330 332 330 323 315 322 314 313 314 310 268 278 259 254 253 246 231 223 194 204 205 220 207 205 224 220 234 231 237 230 232 239 248 189 242 278 274 253 245 242 237 227 226 221 216
329 331 330 329 321 309 310 308 313 322 273 270 240 252 232 226 244 219 211 213 226 225 221 226 245 237 220 224 219 232 227 237 237 244 245 182 276 258 246 229 227 228 221 224 216
326 325 324 323 305 300 301 300 310 313 266 269 223 240 242 208 211 212 209 209 200 197 161 209 234 221 217 223 210 235 233 238 234 234 246 239 257 260 238 242 221 223 221 218 206
321 319 318 314 302 295 289 290 305 234 249 275 289 246 269 207 235 247 183 200 221 224 204 246 273 219 208 223 220 139 93 79 159 206 229 223 208 268 243 236 228 214 210 202 197
319 316 308 306 290 295 285 295 253 234 329 260 264 260 257 274 243 200 183 178 184 192 206 195 208 204 216 194 135 160 155 202 204 205 230 195 205 237 261 240 259 217 185 186 181
317 312 303 297 296 284 266 233 256 258 255 279 299 293 274 295 255 221 212 204 216 225 240 218 211 167 187 193 180 191 194 208 217 203 218 175 207 240 4 133 113 185 176 172 177
320 313 296 296 287 271 223 245 245 254 256 278 297 283 278 261 211 272 226 261 227 214 223 228 235 182 177 187 169 163 211 222 133 210 191 191 260 284 189 187 186 171 170 177 176
323 310 297 299 285 239 246 231 244 256 278 292 277 269 277 322 287 220 207 179 232 222 231 245 254 197 166 141 295 201 161 173 213 185 224 210 243 238 185 204 187 182 182 177 171
338 318 299 294 276 227 246 264 258 265 268 273 263 264 268 283 293 340 306 298 223 202 223 276 253 121 143 204 177 172 169 203 209 223 216 239 233 342 295 200 185 181 176 172 167
334 302 297 299 286 242 255 213 194 253 262 246 256 261 271 284 293 289 256 238 187 187 211 202 329 174 229 357 326 234 200 192 205 196 244 340 255 37 11 358 164 167 165 162 163
298 297 281 277 281 287 292 246 237 237 244 252 277 271 235 270 278 303 297 309 279 224 239 157 204 166 57 295 296 217 199 215 196 80 202 201 250 99 177 154 149 157 153 153 164
304 299 270 219 259 269 284 288 264 232 260 250 262 282 285 258 249 262 276 302 305 247 254 172 229 253 232 320 142 205 203 205 205 205 193 217 215 160 190 165 161 152 154 162 174
265 269 288 288 292 303 297 282 281 280 219 235 251 248 270 275 276 254 270 297 228 246 225 229 248 210 106 25 309 289 210 198 212 220 209 242 229 117 128 182 172 158 155 163 174
262 292 285 286 286 286 291 284 296 298 224 264 235 274 255 267 274 295 292 292 280 191 221 200 219 156 215 177 235 241 231 206 212 228 238 98 282 70 87 113 154 177 175 179 185
281 293 274 287 294 289 294 298 300 326 277 256 293 300 282 274 283 290 271 276 266 295 212 216 186 170 169 168 203 259 235 201 219 231 231 230 224 158 177 146 186 191 187 191 189